Printer-friendly version

IAU Minor Planet Center

Minor Planet Center

MPEC 2001-K53: 2001 KB67

The following Minor Planet Electronic Circular may be linked-to from your own Web pages, but must not otherwise be redistributed electronically.


Read MPEC 2001-K52 Read MPEC 2001-L01


M.P.E.C. 2001-K53                                Issued 2001 May 31, 18:37 UT

     The Minor Planet Electronic Circulars contain information on unusual
         minor planets and routine data on comets.  They are published
   on behalf of Commission 20 of the International Astronomical Union by the
          Minor Planet Center, Smithsonian Astrophysical Observatory,
                          Cambridge, MA 02138, U.S.A.

             Prepared using the Tamkin Foundation Computer Network

                              MPC@CFA.HARVARD.EDU
          URL http://cfa-www.harvard.edu/iau/mpc.html  ISSN 1523-6714

                                   2001 KB67

Observations:
     K01K67B* C2001 05 30.37460 20 47 27.11 +15 32 59.9          16.4        704
     K01K67B  C2001 05 30.38574 20 47 08.43 +15 34 26.3          16.6        704
     K01K67B  C2001 05 30.39702 20 46 49.46 +15 35 53.7          16.5        704
     K01K67B  C2001 05 30.41006 20 46 27.54 +15 37 34.3          16.6        704
     K01K67B  C2001 05 30.42441 20 46 03.42 +15 39 24.5          16.7        704
     K01K67B  C2001 05 30.94156 20 32 17.40 +16 40 57.7          15.7 R      046
     K01K67B  C2001 05 30.94244 20 32 15.98 +16 41 04.4                      046
     K01K67B  C2001 05 30.94277 20 32 15.43 +16 41 06.3                      046
     K01K67B  C2001 05 30.94314 20 32 14.82 +16 41 09.3                      046
     K01K67B  C2001 05 30.94347 20 32 14.32 +16 41 11.6                      046
     K01K67B  C2001 05 30.94411 20 32 13.28 +16 41 15.6          15.6 R      046
     K01K67B  C2001 05 30.95481 20 31 56.46 +16 42 25.9          15.7 V      163
     K01K67B  C2001 05 30.95514 20 31 56.06 +16 42 27.9                      163
     K01K67B  C2001 05 30.95537 20 31 55.74 +16 42 29.8                      163
     K01K67B  C2001 05 30.95744 20 31 53.61 +16 43 02.1                      620
     K01K67B  C2001 05 30.95749 20 31 52.37 +16 42 44.6                      163
     K01K67B  C2001 05 30.95767 20 31 51.87 +16 42 46.1                      163
     K01K67B  C2001 05 30.95801 20 31 51.34 +16 42 48.2                      163
     K01K67B  C2001 05 30.95909 20 31 50.95 +16 43 14.5                      620
     K01K67B  C2001 05 30.96414 20 31 42.83 +16 43 49.3                      620
     K01K67B  C2001 05 30.96656 20 31 38.97 +16 44 05.7                      620
     K01K67B  C2001 05 30.96775 20 31 37.12 +16 44 14.9                      620
     K01K67B  C2001 05 30.97030 20 31 33.01 +16 44 33.8                      620
     K01K67B  C2001 05 30.99131 20 30 57.52 +16 46 47.7                      118
     K01K67B  C2001 05 30.99195 20 30 56.45 +16 46 53.3                      118
     K01K67B  C2001 05 30.99739 20 30 47.70 +16 47 30.8                      118
     K01K67B  C2001 05 30.99806 20 30 46.77 +16 47 34.8          16.0 R      118
     K01K67B  C2001 05 30.99956 20 30 44.16 +16 47 46.2                      118
     K01K67B  C2001 05 31.29325 20 23 08.27 +17 20 08.4          16.1 R      918
     K01K67B  C2001 05 31.29585 20 23 04.15 +17 20 25.7                      918
     K01K67B  C2001 05 31.29682 20 23 02.64 +17 20 32.0                      918
     K01K67B  C2001 05 31.29783 20 23 01.16 +17 20 38.6                      918
     K01K67B 1C2001 05 31.35971 20 21 25.42 +17 27 02.8                      658
     K01K67B 1C2001 05 31.36029 20 21 24.56 +17 27 06.6                      658
     K01K67B 1C2001 05 31.36091 20 21 23.56 +17 27 10.4                      658
     K01K67B  C2001 05 31.36576 20 21 15.38 +17 28 20.0          16.1        704
     K01K67B  C2001 05 31.37622 20 20 58.83 +17 29 26.9          16.1        704
     K01K67B  C2001 05 31.38668 20 20 42.33 +17 30 33.3          15.6        704
     K01K67B  C2001 05 31.39719 20 20 25.72 +17 31 40.3          15.6        704
     K01K67B  C2001 05 31.40766 20 20 09.14 +17 32 47.0          16.5        704

Observer details:
046 Klet.  Observer M. Tichy.  0.57-m f/5.2 reflector + CCD.
118 Modra.  Observers L. Kornos, J. Toth.  0.6-m f/5.5 reflector + CCD.
163 Roeser Observatory, Luxembourg.  Observer M. Dawson.  0.3-m f/5
    Schmidt-Cassegrain + CCD.
620 Observatorio Astronomico de Mallorca.  Observer S. Sanchez.  0.30-m f/3.3
    Schmidt-Cassegrain + CCD.
658 National Research Council of Canada.  Observer D. D. Balam.  1.82-m
    Plaskett reflector + CCD.
704 Lincoln Laboratory ETS, New Mexico.  Observers M. Blythe, F. Shelly,
    M. Bezpalko, R. Huber, L. Manguso, S. Adams.  Measurers J. Stuart,
    R. Sayer, J. B. Evans, H. Viggh.  1.0-m f/2.15 reflector + CCD.
918 Badlands Observatory, Quinn.  Observer R. Dyvig.  0.66-m f/4.8 reflector
    + CCD.

Orbital elements:
2001 KB67                                                            PHA 0.007
Epoch 2001 May 31.0 TT = JDT 2452060.5                  Spahr
M  80.03471              (2000.0)            P               Q
n   1.04249573     Peri.  243.83717     -0.60442329     -0.74962428
a   0.9632814      Node   246.02634     +0.79470657     -0.54362543
e   0.3801244      Incl.   17.16705     +0.05580281     -0.37753785
P   0.95           H   19.9           G   0.15
From 40 observations 2001 May 30-31.

Ephemeris:
2001 KB67                a,e,i = 0.96, 0.38, 17                  q = 0.5971
Date    TT    R. A. (2000) Decl.     Delta      r     Elong.  Phase     V
2001 05 21    00 32.49   -07 09.6    0.075    0.972    56.0   120.4    19.1
2001 05 31    20 30.67   +16 49.1    0.059    1.036   109.9    67.0    16.2
2001 06 10    17 47.63   +22 53.5    0.110    1.093   133.3    42.5    16.9
2001 06 20    16 54.86   +21 22.1    0.178    1.145   132.9    40.5    18.0
2001 06 30    16 34.74   +19 03.4    0.253    1.191   128.4    42.0    18.9
2001 07 10    16 27.88   +16 36.2    0.331    1.230   123.2    43.8    19.6
2001 07 20    16 28.16   +14 07.9    0.412    1.262   117.9    45.4    20.2
2001 07 30    16 33.18   +11 41.9    0.493    1.288   112.7    46.6    20.7
2001 08 09    16 41.62   +09 21.7    0.575    1.308   107.6    47.6    21.1
2001 08 19    16 52.70   +07 09.0    0.655    1.321   102.7    48.3    21.4
2001 08 29    17 06.01   +05 05.1    0.734    1.328    98.0    48.8    21.7
2001 09 08    17 21.19   +03 11.8    0.809    1.329    93.4    49.2    21.9

Timothy B. Spahr             (C) Copyright 2001 MPC           M.P.E.C. 2001-K53

Read MPEC 2001-K52 Read MPEC 2001-L01


Our Web policy. Index to the CBAT/MPC/ICQ pages.


Valid HTML 4.01!